[[{"header":{"parameterUnit":"m.s-1","parameterCategory":1,"la1":30.2991,"la2":30.254,"lo1":-89.0895,"lo2":-89.0444,"dy":0.0017,"dx":0.0017,"nx":28,"ny":28,"refTime":"2025-08-10T03:00:00:Z","depth":0,"parameterNumber":2,"parameterNumberName":"U-component_of_WINDS"},"data":[0,0,0,0,0,0,0,0,0,0,0,0,0,0,0,0,0,0,0,0,0,0,0,0,0,0,0,0,0,0,0,0,0,0,0,0,0,0,0,0,0,0,0,0,0,0,0,0,0,0,0,0,0,0,0,0,0,0,-1.6397,-1.6398,0,-1.643,-1.6431,-1.6431,-1.638,-1.6378,-1.6377,-1.6375,-1.6409,-1.6411,-1.6414,0,0,0,0,0,0,0,0,0,0,0,0,0,-1.6291,-1.6293,-1.6397,-1.6398,-1.6398,-1.643,-1.6431,-1.6431,-1.638,-1.6378,-1.6376,-1.6374,-1.6408,-1.6411,-1.6414,0,0,0,0,0,0,0,0,0,0,0,0,0,-1.6332,-1.6294,-1.6397,-1.6377,-1.6375,-1.643,-1.6431,-1.6431,-1.6381,-1.6378,-1.6376,-1.6373,-1.6407,-1.6411,-1.6415,-1.6491,0,0,-1.6426,-1.6428,0,0,0,0,0,0,0,0,-1.633,-1.6336,-1.6379,-1.6378,-1.6377,-1.6398,-1.6405,-1.6451,-1.6382,-1.6379,-1.6375,-1.6372,-1.6408,-1.6411,-1.6423,-1.6493,-1.6494,-1.6427,-1.6429,-1.6431,-1.6432,0,0,0,0,0,0,0,-1.6327,-1.6334,-1.641,-1.638,-1.6378,-1.6366,-1.6369,-1.6414,-1.6408,-1.6379,-1.6375,-1.638,-1.6406,-1.642,-1.6424,-1.6495,-1.6427,-1.643,-1.6432,-1.6434,-1.6628,-1.6631,0,0,0,0,0,0,-1.6326,-1.6332,-1.6409,-1.6411,-1.6346,-1.637,-1.6373,-1.6394,-1.6407,-1.6406,-1.6382,-1.6377,-1.6414,-1.6419,-1.6425,-1.6515,-1.6431,-1.6434,-1.6436,-1.6626,-1.6629,-1.6632,0,0,0,0,0,0,-1.6324,-1.6334,-1.6408,-1.6371,-1.6379,-1.6375,-1.6398,-1.6396,-1.6409,-1.6409,-1.6408,-1.6397,-1.6413,-1.6419,-1.6475,-1.6515,-1.6436,-1.6439,-1.6622,-1.6627,-1.6631,-1.6696,0,0,0,0,0,0,-1.6321,-1.6333,-1.6362,-1.6372,-1.6381,-1.6458,-1.6401,-1.6399,-1.6416,-1.641,-1.6423,-1.6422,-1.6411,-1.647,-1.6479,-1.6519,-1.6442,-1.6619,-1.6624,-1.6629,-1.669,-1.6702,-1.6712,0,0,0,0,0,-1.6318,-1.638,-1.6364,-1.6374,-1.6418,-1.646,-1.6466,-1.6451,-1.642,-1.6449,-1.6449,-1.6422,-1.6509,-1.6476,-1.6486,-1.6528,-1.6616,-1.6623,-1.6629,-1.6685,-1.67,-1.6712,0,0,0,0,0,0,-1.6376,-1.6381,-1.6363,-1.643,-1.6445,-1.6452,-1.6488,-1.6467,-1.6492,-1.6485,-1.6466,-1.6469,-1.6529,-1.6534,-1.6496,-1.6602,-1.6557,-1.6566,-1.6597,-1.6611,-1.6621,-1.6619,-1.6446,0,0,0,0,0,-1.6396,-1.643,-1.6433,-1.6491,-1.65,-1.6493,-1.6511,-1.6498,-1.6513,-1.6519,-1.6523,-1.6539,-1.657,-1.659,-1.6619,-1.6691,-1.6693,-1.6725,-1.6736,-1.6745,-1.6752,-1.679,-1.6804,-1.6653,-1.6653,-1.6653,0,0,-1.6439,-1.6446,-1.6468,-1.6503,-1.6513,-1.6549,-1.6499,-1.6539,-1.6565,-1.6525,-1.6578,-1.6582,-1.6598,-1.6662,-1.669,-1.6668,-1.6794,-1.6753,-1.676,-1.6763,-1.6798,-1.6813,-1.6825,-1.6658,-1.6657,-1.6656,0,0,-1.6535,-1.6544,-1.6593,-1.6604,-1.662,-1.6615,-1.6627,-1.6637,-1.6638,-1.669,-1.6661,-1.6692,-1.6746,-1.6758,-1.6772,-1.6872,-1.6848,-1.6882,-1.6939,-1.6976,-1.6988,-1.6998,-1.7034,-1.7047,-1.689,-1.689,-1.689,0,-1.6586,-1.6638,-1.6621,-1.6663,-1.6679,-1.6645,-1.6695,-1.6707,-1.6731,-1.6743,-1.6718,-1.6784,-1.6792,-1.6859,-1.6883,-1.6895,-1.6908,-1.688,-1.6988,-1.6998,-1.7008,-1.7041,-1.7055,-1.6894,-1.6893,-1.6893,-1.6892,0,-1.67,-1.6737,-1.6775,-1.68,-1.682,-1.6866,-1.6856,-1.6878,-1.6864,-1.6862,-1.6915,-1.6924,-1.6954,-1.6968,-1.6955,-1.7033,-1.7018,-1.6991,-1.6945,-1.7026,-1.7057,-1.707,-1.6899,-1.6898,-1.6897,-1.6896,0,0,-1.6833,-1.6847,-1.6862,-1.6872,-1.6887,-1.6915,-1.696,-1.6988,-1.7008,-1.7026,-1.7062,-1.7108,-1.7083,-1.7098,-1.7086,-1.7118,-1.7197,-1.7086,-1.7086,-1.7106,-1.7283,-1.7303,-1.7319,-1.7181,-1.7184,-1.7186,-1.7281,0,-1.6929,-1.7005,-1.6991,-1.7065,-1.7099,-1.7066,-1.7105,-1.7118,-1.7117,-1.7146,-1.7144,-1.7177,-1.7141,-1.715,-1.7181,-1.7181,-1.7232,-1.7174,-1.7215,-1.7217,-1.7212,-1.7335,-1.7357,-1.7447,-1.7293,-1.7295,-1.7297,0,-1.705,-1.7072,-1.715,-1.7159,-1.7173,-1.7208,-1.7232,-1.726,-1.7274,-1.7271,-1.7288,-1.727,-1.7313,-1.7267,-1.7327,-1.7288,-1.7304,-1.7307,-1.731,-1.7313,-1.7262,-1.7341,-1.7475,-1.7489,-1.7316,-1.7315,-1.7313,0,-1.7139,-1.7188,-1.7241,-1.7251,-1.7263,-1.7288,-1.7295,-1.7306,-1.7324,-1.7346,-1.7357,-1.7384,-1.7399,-1.742,-1.7409,-1.7377,-1.7471,-1.7424,-1.7469,-1.747,-1.7491,-1.749,-1.7629,-1.7502,-1.7501,-1.7501,-1.7501,0,-1.7247,-1.7295,-1.7281,-1.7314,-1.7367,-1.735,-1.7404,-1.7406,-1.7417,-1.7449,-1.7423,-1.7454,-1.7437,-1.7467,-1.7459,-1.751,-1.7517,-1.7515,-1.7512,-1.7517,-1.7518,-1.7527,-1.7521,-1.7505,-1.7504,-1.7503,-1.7503,0,-1.7355,-1.7347,-1.7403,-1.741,-1.7412,-1.7452,-1.7457,-1.7488,-1.7484,-1.7526,-1.7534,-1.7529,-1.7563,-1.7554,-1.759,-1.7585,-1.7649,-1.7638,-1.7644,-1.7641,-1.7687,-1.7683,-1.7837,-1.7857,-1.7717,-1.7719,-1.772,0,-1.7424,-1.7461,-1.7471,-1.7491,-1.7499,-1.7531,-1.7549,-1.7534,-1.7554,-1.7573,-1.7601,-1.7632,-1.7656,-1.7711,-1.7711,-1.7739,-1.7728,-1.778,-1.7732,-1.7736,-1.7729,-1.7726,-1.773,-1.779,-1.7792,-1.7793,-1.7794,0,-1.7547,-1.7542,-1.7569,-1.7595,-1.7617,-1.7637,-1.7654,-1.7672,-1.7658,-1.7681,-1.7715,-1.7734,-1.7771,-1.7802,-1.7827,-1.7833,-1.7812,-1.7809,-1.7821,-1.7827,-1.7828,-1.7828,-1.767,-1.7806,-1.7805,-1.7804,-1.7803,-1.7803,-1.7638,-1.7669,-1.7681,-1.7712,-1.7723,-1.774,-1.7769,-1.7769,-1.7797,-1.7826,-1.7815,-1.7854,-1.7867,-1.7898,-1.7908,-1.7938,-1.7918,-1.7935,-1.794,-1.7944,-1.795,-1.7824,-1.7942,-1.7942,-1.7942,-1.7942,-1.7941,0,-1.7759,-1.7766,-1.7794,-1.7819,-1.7844,-1.7821,-1.7839,-1.786,-1.7895,-1.7909,-1.7933,-1.7972,-1.8002,-1.8004,-1.8032,-1.8055,-1.8046,-1.8063,-1.8061,-1.8063,-1.7966,-1.7953,-1.807,-1.807,-1.807,-1.807,-1.807,-1.807,-1.7825,-1.7876,-1.7872,-1.7929,-1.7934,-1.7972,-1.7984,-1.7999,-1.801,-1.8055,-1.808,-1.8081,-1.809,-1.8118,-1.8145,-1.8144,-1.8156,-1.8177,-1.8173,-1.8082,-1.807,-1.8057,-1.8045,-1.818,-1.818,-1.8267,-1.8268,-1.8268]},{"header":{"parameterUnit":"m.s-1","parameterCategory":1,"la1":30.2991,"la2":30.254,"lo1":-89.0895,"lo2":-89.0444,"dy":0.0017,"dx":0.0017,"nx":28,"ny":28,"refTime":"2025-08-10T03:00:00:Z","depth":0,"parameterNumber":3,"parameterNumberName":"V-component_of_WINDS"},"data":[0,0,0,0,0,0,0,0,0,0,0,0,0,0,0,0,0,0,0,0,0,0,0,0,0,0,0,0,0,0,0,0,0,0,0,0,0,0,0,0,0,0,0,0,0,0,0,0,0,0,0,0,0,0,0,0,0,0,-1.7269,-1.727,0,-1.7326,-1.7327,-1.7327,-1.7363,-1.7363,-1.7363,-1.7363,-1.7422,-1.7423,-1.7424,0,0,0,0,0,0,0,0,0,0,0,0,0,-1.7191,-1.7192,-1.7269,-1.727,-1.7271,-1.7326,-1.7327,-1.7327,-1.7363,-1.7363,-1.7363,-1.7363,-1.7421,-1.7423,-1.7425,0,0,0,0,0,0,0,0,0,0,0,0,0,-1.7234,-1.7193,-1.7269,-1.7295,-1.7298,-1.7326,-1.7327,-1.7328,-1.7363,-1.7363,-1.7363,-1.7363,-1.7421,-1.7423,-1.7425,-1.7432,0,0,-1.7431,-1.7432,0,0,0,0,0,0,0,0,-1.7232,-1.7237,-1.729,-1.7293,-1.7296,-1.7338,-1.732,-1.7362,-1.7363,-1.7338,-1.7363,-1.7364,-1.7393,-1.7398,-1.7408,-1.7434,-1.7437,-1.7431,-1.7432,-1.7433,-1.7434,0,0,0,0,0,0,0,-1.7229,-1.7235,-1.7292,-1.7291,-1.7295,-1.7303,-1.731,-1.7329,-1.7363,-1.734,-1.7343,-1.7349,-1.7395,-1.7406,-1.7409,-1.7438,-1.7431,-1.7433,-1.7434,-1.7435,-1.7471,-1.7471,0,0,0,0,0,0,-1.7221,-1.7232,-1.729,-1.7293,-1.7264,-1.7305,-1.7312,-1.7324,-1.7363,-1.737,-1.7349,-1.735,-1.7402,-1.7407,-1.7412,-1.7421,-1.7433,-1.7435,-1.7436,-1.7472,-1.7471,-1.7471,0,0,0,0,0,0,-1.722,-1.7226,-1.7287,-1.7263,-1.7272,-1.7306,-1.7319,-1.7325,-1.7336,-1.737,-1.7376,-1.7353,-1.7403,-1.7409,-1.7426,-1.7424,-1.7436,-1.7438,-1.7472,-1.7471,-1.7471,-1.7441,0,0,0,0,0,0,-1.7217,-1.7225,-1.7228,-1.7263,-1.7273,-1.7301,-1.7319,-1.7326,-1.7339,-1.7342,-1.7376,-1.7381,-1.7403,-1.7423,-1.7428,-1.7427,-1.744,-1.7472,-1.7472,-1.7471,-1.7442,-1.744,-1.7437,0,0,0,0,0,-1.7214,-1.7218,-1.7228,-1.7235,-1.7277,-1.7301,-1.7306,-1.7331,-1.7339,-1.7342,-1.7364,-1.738,-1.7423,-1.7424,-1.7431,-1.743,-1.7472,-1.7472,-1.7471,-1.7443,-1.744,-1.7437,0,0,0,0,0,0,-1.7183,-1.7223,-1.7235,-1.725,-1.7272,-1.7307,-1.7312,-1.7327,-1.7347,-1.7349,-1.7379,-1.7386,-1.74,-1.7417,-1.7417,-1.7438,-1.745,-1.745,-1.7426,-1.7424,-1.7421,-1.7416,-1.7441,0,0,0,0,0,-1.7178,-1.7193,-1.7228,-1.7238,-1.7248,-1.7278,-1.7289,-1.7306,-1.7329,-1.7339,-1.7362,-1.7384,-1.7403,-1.7414,-1.7433,-1.7445,-1.7452,-1.7448,-1.7445,-1.7443,-1.7443,-1.7449,-1.7447,-1.7469,-1.7469,-1.7469,0,0,-1.7167,-1.7191,-1.7199,-1.7232,-1.7251,-1.7265,-1.7285,-1.7301,-1.7312,-1.7341,-1.7359,-1.7376,-1.7403,-1.7417,-1.7425,-1.7432,-1.7438,-1.7442,-1.744,-1.7441,-1.7448,-1.7446,-1.7444,-1.7469,-1.7469,-1.7469,0,0,-1.7155,-1.7175,-1.7185,-1.7203,-1.7231,-1.7251,-1.7253,-1.7286,-1.7298,-1.7316,-1.7338,-1.7352,-1.7383,-1.7401,-1.7414,-1.7408,-1.7424,-1.7413,-1.74,-1.7406,-1.7404,-1.7403,-1.7399,-1.7398,-1.7413,-1.7413,-1.7413,0,-1.7139,-1.7162,-1.7188,-1.7202,-1.7216,-1.7242,-1.7252,-1.7269,-1.7301,-1.731,-1.7317,-1.7356,-1.7376,-1.7394,-1.7392,-1.7403,-1.7406,-1.7409,-1.7402,-1.7401,-1.74,-1.7397,-1.7396,-1.7412,-1.7412,-1.7412,-1.7412,0,-1.714,-1.7156,-1.7161,-1.7191,-1.7205,-1.7216,-1.7244,-1.7255,-1.7271,-1.7289,-1.7307,-1.7331,-1.7355,-1.7361,-1.7377,-1.7381,-1.7384,-1.7396,-1.7409,-1.7396,-1.7394,-1.7393,-1.741,-1.741,-1.7411,-1.7411,0,0,-1.711,-1.7154,-1.7155,-1.7168,-1.7201,-1.7213,-1.7226,-1.7249,-1.7257,-1.7279,-1.729,-1.7315,-1.7326,-1.7341,-1.7359,-1.7364,-1.7356,-1.7375,-1.7376,-1.737,-1.7361,-1.7351,-1.7349,-1.7367,-1.7367,-1.7367,-1.7358,0,-1.7103,-1.7127,-1.715,-1.7165,-1.718,-1.7205,-1.7216,-1.7236,-1.7254,-1.7269,-1.7289,-1.7305,-1.7319,-1.7328,-1.7335,-1.7355,-1.7354,-1.7357,-1.7377,-1.7377,-1.7368,-1.7348,-1.7338,-1.7329,-1.7358,-1.7358,-1.7358,0,-1.7097,-1.7117,-1.7133,-1.7163,-1.717,-1.7179,-1.7201,-1.7215,-1.7239,-1.7251,-1.7267,-1.7286,-1.73,-1.7311,-1.733,-1.7331,-1.7341,-1.7352,-1.7352,-1.7354,-1.7366,-1.7349,-1.7327,-1.7325,-1.7357,-1.7357,-1.7357,0,-1.7073,-1.7103,-1.7117,-1.7127,-1.7162,-1.7168,-1.7183,-1.7207,-1.7219,-1.7238,-1.7246,-1.7267,-1.7278,-1.7294,-1.7318,-1.7324,-1.7334,-1.7347,-1.7344,-1.7344,-1.7345,-1.7344,-1.7323,-1.7352,-1.7352,-1.7352,-1.7352,0,-1.7061,-1.707,-1.7106,-1.7114,-1.7124,-1.7151,-1.716,-1.7178,-1.7198,-1.721,-1.7233,-1.7244,-1.7275,-1.7289,-1.7308,-1.732,-1.7325,-1.7335,-1.734,-1.7333,-1.7331,-1.7339,-1.734,-1.7352,-1.7352,-1.7352,-1.7352,0,-1.7036,-1.706,-1.7076,-1.7107,-1.7116,-1.7122,-1.7149,-1.7157,-1.7176,-1.719,-1.7195,-1.7224,-1.7242,-1.7267,-1.7293,-1.7305,-1.7315,-1.7323,-1.7306,-1.7309,-1.7304,-1.7304,-1.7286,-1.7285,-1.7316,-1.7315,-1.7315,0,-1.7027,-1.7034,-1.7066,-1.7075,-1.7089,-1.7103,-1.7115,-1.7142,-1.7153,-1.718,-1.7185,-1.7204,-1.7221,-1.7248,-1.7271,-1.7291,-1.7299,-1.7291,-1.7302,-1.7294,-1.7297,-1.7296,-1.7297,-1.7288,-1.7288,-1.7288,-1.7287,0,-1.7007,-1.7019,-1.7035,-1.7055,-1.7068,-1.7085,-1.7103,-1.7109,-1.7139,-1.7151,-1.7169,-1.7182,-1.7207,-1.7226,-1.7248,-1.7263,-1.728,-1.7284,-1.7284,-1.7276,-1.7266,-1.727,-1.7298,-1.7284,-1.7284,-1.7285,-1.7285,-1.7285,-1.6989,-1.6996,-1.7019,-1.7036,-1.7052,-1.7068,-1.7077,-1.7097,-1.7112,-1.7134,-1.7149,-1.7166,-1.7188,-1.722,-1.7234,-1.7248,-1.7255,-1.7255,-1.7255,-1.7254,-1.7251,-1.7264,-1.7252,-1.7252,-1.7252,-1.7252,-1.7252,0,-1.697,-1.6986,-1.7001,-1.7025,-1.7038,-1.7052,-1.7073,-1.7083,-1.7097,-1.7116,-1.7132,-1.7152,-1.717,-1.7194,-1.7214,-1.7219,-1.7227,-1.7224,-1.7223,-1.7226,-1.7245,-1.7242,-1.7217,-1.7217,-1.7217,-1.7217,-1.7217,-1.7217,-1.6962,-1.6974,-1.6988,-1.7008,-1.7024,-1.704,-1.705,-1.7065,-1.708,-1.7101,-1.7116,-1.7131,-1.7153,-1.7174,-1.719,-1.7197,-1.7203,-1.7196,-1.7205,-1.7222,-1.7225,-1.7228,-1.7226,-1.7197,-1.7197,-1.7185,-1.7185,-1.7185]}]]